Regional Weather Roundup
Issued by NWS

Home | Current Version | Previous Version | Graphics & Text | Print | Product List | Glossary On
Versions: 1 2 3 4 5 6 7 8 9 10 11 12 13 14 15 16 17 18 19 20 21 22 23 24 25 26 27 28 29 30 31 32 33 34 35 36 37 38 39 40 41 42 43 44 45 46 47 48 49 50
000
ASUS43 KLOT 260704
RWRIL

ILLINOIS REGIONAL WEATHER ROUNDUP
NATIONAL WEATHER SERVICE CHICAGO/ROMEOVILLE IL
200 AM CDT FRI MAY 26 2017

NOTE: "FAIR" INDICATES FEW OR NO CLOUDS BELOW 12,000 FEET WITH NO
SIGNIFICANT WEATHER AND/OR OBSTRUCTIONS TO VISIBILITY.

* THESE STATIONS ARE NOT UNDER NWS QUALITY CONTROL. THEY ALSO MAY NOT
  REPORT WEATHER SUCH AS PRECIPITATION OR FOG.

ILZ001-002-007-009-015-016-024-260800-
NORTHWEST ILLINOIS

CITY           SKY/WX    TMP DP  RH WIND       PRES   REMARKS
MOLINE         MOCLDY    59  54  83 E6        29.76S
STERLING*      PTCLDY    57  55  93 CALM      29.79S
SAVANNA*       CLOUDY    57  55  92 E3        29.79R
$$

ILZ003-004-008-010-011-017-018-260800-
NORTH CENTRAL ILLINOIS

CITY           SKY/WX    TMP DP  RH WIND       PRES   REMARKS
ROCKFORD       CLOUDY    57  53  86 CALM      29.81R
FREEPORT*      CLOUDY    58  55  89 SW5       29.82R
ROCHELLE*      PTCLDY    53  52  97 CALM      29.80S
DE KALB*       MOCLDY    53  51  95 S3        29.81R
$$

ILZ005-006-012>014-019>023-260800-
NORTHEAST ILLINOIS

CITY           SKY/WX    TMP DP  RH WIND       PRES   REMARKS
CHICAGO-OHARE  PTCLDY    53  49  86 CALM      29.78R
CHICAGO-MIDWAY PTCLDY    56  51  84 S5        29.79R
AURORA         CLOUDY    56  53  90 CALM      29.80R
LANSING*       CLEAR     48  48 100 CALM      29.81R FOG
JOLIET*        CLEAR     53  53  98 CALM      29.81R FOG
WAUKEGAN       CLEAR     49  48  97 CALM      29.78S FOG
DUPAGE AIRPORT PTCLDY    55  52  89 CALM      29.80R
WHEELING       CLEAR     50  50 100 CALM      29.80R
MORRIS*        CLOUDY    54  53  94 CALM      29.79R FOG
ROMEOVILLE*    CLEAR     54  54 100 S5        29.80R
NORTHERLY ISL    N/A     57  50  77 SW6         N/A
$$

LMZ740>746-260800-
SOUTHERN LAKE MICHIGAN

STATION/POSITION SKY/WX   TEMP    WIND        PRES    VSBY  WAVE
                          AIR SEA DIR/SP/G                  HT/PER
                          (F)     (DEG/KT/KT) (MB)    (MI)  (FT/S)
SOUTHERN BUOY              48 45  350/ 10/ 12 1008.1          2/ 5
WILMETTE HARBOR            51 51                N/A           2/ 5
HARRISON CRIB              59     270/  7/  7   N/A
BURNHAM HARBOR             57     260/  5/  6   N/A
CALUMET HARBOR             55     230/  4/  5 1008.4R
BURNS HARBOR               55     260/  3/  4 1009.5S
MICHIGAN CITY              53     230/  8/  8   N/A
MICHIGAN CITY 6N           51 51  240/  4/  6   N/A           2/ 5
ST. JOSEPH                 51 55  270/  6/  6 1008.9R         3/ 5
$$

ILZ025>027-034>036-040-047-049-050-058-095>099-260800-
WEST-CENTRAL ILLINOIS

CITY           SKY/WX    TMP DP  RH WIND       PRES   REMARKS
QUINCY         CLOUDY    65  52  62 S10       29.75F
GALESBURG*     LGT RAIN  59  56  89 SE7       29.76F
MACOMB*        CLOUDY    59  56  89 E3        29.80R
JACKSONVILLE*  MOCLDY    60  55  83 SE3       29.78S
PITTSFIELD*    PTCLDY    61  57  87 CALM      29.80R
$$

ILZ028>032-037-038-041>044-048-051>054-059>061-260800-
CENTRAL ILLINOIS

CITY           SKY/WX    TMP DP  RH WIND       PRES   REMARKS
PONTIAC        PTCLDY    54  53  97 S3        29.81R FOG
BLOOMINGTON    CLEAR     54  52  93 S6        29.82S
DECATUR        CLOUDY    55  53  93 SE3       29.80S
PEORIA         CLOUDY    58  56  93 CALM      29.80R
LACON*         CLEAR     53  53  99 CALM      29.80R
LINCOLN*       PTCLDY    59  57  94 CALM      29.80R
SPRINGFIELD    MOCLDY    59  56  89 CALM      29.79R
TAYLORVILLE    NOT AVBL
$$

ILZ033-039-045-046-055>057-062-063-260800-
EAST-CENTRAL ILLINOIS

CITY           SKY/WX    TMP DP  RH WIND       PRES   REMARKS
CHAMPAIGN      CLEAR     55  52  89 SE5       29.81F
RANTOUL*       CLEAR     55  54  95 CALM      29.81S FOG
MATTOON        CLEAR     57  57 100 S6        29.81S
PARIS*         CLEAR     54  53  99 CALM      29.83F
$$

ILZ079-100>102-260800-
SOUTHWEST ILLINOIS

CITY           SKY/WX    TMP DP  RH WIND       PRES   REMARKS
ALTON          PTCLDY    59  53  81 CALM      29.79R
BELLEVILLE     PTCLDY    59  54  83 S5        29.80S
CAHOKIA*       CLOUDY    61  53  75 CALM      29.78S
SPARTA*        PTCLDY    61  54  76 S5        29.81F
$$

ILZ064>066-069>071-074>076-080>082-084>086-088>090-092>094-260800-
SOUTH-CENTRAL ILLINOIS

CITY           SKY/WX    TMP DP  RH WIND       PRES   REMARKS
CARBONDALE     CLOUDY    58  57  97 S3        29.82S
CAIRO*         CLEAR     63  55  74 S3        29.84R
EFFINGHAM*     CLOUDY    55  55 100 E3        29.82F
MARION         CLEAR     59  57  94 CALM      29.84S
MT. VERNON       N/A     52  52 100 CALM      29.81F
CENTRALIA*     CLEAR     59  56  88 S7        29.79F
SALEM*         CLEAR     61  54  75 SE5       29.80F
$$

ILZ067-068-072-073-078-083-087-091-260800-
SOUTHEAST ILLINOIS

CITY           SKY/WX    TMP DP  RH WIND       PRES   REMARKS
LAWRENCEVILLE  FOG       56  56 100 SE3       29.83F VSB 1/2
FLORA*         CLEAR     57  55  95 SE3       29.82F
FAIRFIELD*     CLEAR     56  55  96 CALM      29.82F
HARRISBURG*    CLEAR     56  54  93 CALM      29.85R
ROBINSON*      CLEAR     54  54 100 CALM      29.84S FOG
CARMI*         CLEAR     56  55  97 CALM      29.84S
$$

ABBREVIATIONS USED IN REMARKS
   TC - TEMPERATURE IN CELSIUS
  WCI - WIND CHILL INDEX
   HX - HEAT INDEX
  VSB - VISIBILITY
$$





USA.gov is the U.S. government's official web portal to all federal, state and local government web resources and services.